Simultaneous Nadir Overpasses (SNOs) Predictions

Prediction of SNOs between METOP-C and LANDSAT-8 Satellite Orbit:

Table of predicted SNOs for the next 14.0 days since TLE Epoch: 6/5/2021
Index Date (METOP-C) Time (METOP-C) Lat,Lon (METOP-C) SZA (METOP-C ) Date (LANDSAT-8) Time (LANDSAT-8) Lat,Lon (LANDSAT-8) SZA (LANDSAT-8 ) Distance(km) Time Diff (sec)
1 06/07/2021 17:55:11 -81.14, 131.37 119.46 06/07/2021 17:55:23 -81.15, 131.52 119.44 2.51 12
2 06/07/2021 18:45:48 81.18, -60.18 60.68 06/07/2021 18:44:48 81.18, -60.36 60.63 3.15 60
3 06/10/2021 13:29:32 -81.15,-161.97 119.68 06/10/2021 13:29:39 -81.15,-161.90 119.66 1.16 7
4 06/10/2021 14:20:10 81.17, 6.05 60.41 06/10/2021 14:19:04 81.18, 6.20 60.41 2.73 66
5 06/13/2021 09:03:53 -81.16, -95.32 119.84 06/13/2021 09:03:55 -81.16, -95.34 119.84 0.45 2
6 06/13/2021 09:54:32 81.17, 72.26 60.20 06/13/2021 09:53:21 81.17, 72.36 60.17 1.67 71
7 06/16/2021 03:47:33 81.14, 163.22 59.96 06/16/2021 03:48:44 81.14, 163.18 59.99 0.72 71
8 06/16/2021 04:38:13 -81.17, -28.69 119.95 06/16/2021 04:38:10 -81.17, -28.82 119.96 2.16 3
9 06/18/2021 23:21:54 81.15,-130.20 59.90 06/18/2021 23:23:00 81.15,-130.34 59.91 2.35 66



Historial Predications of SNOs between METOP-C and LANDSAT-8
